When you browse on this site, cookies collect data to enhance your experience and personalize the content and advertising you see.
Visit our Privacy Policy to learn more. By continuing to use the site, you agree to this use of cookies and data.
  • In Latvia
  • List of Countries
  • For 7 days
  • Water Temperature
  • Satellite Maps
  • Weather Map
  • Weather Widgets
  • user-avatar
    Login

    Hourly Weather Babruysk

    Today, 26 March, Tuesday

    Time Temperature Precipitation Wind Pressure Humidity
    00:00 +3°C° 0 mm 2 mps 742 mmHg 64%
    01:00 +2°C° 0 mm 2 mps 742 mmHg 67%
    02:00 +2°C° 0 mm 1 mps 742 mmHg 72%
    03:00 +1°C° 0 mm 2 mps 742 mmHg 75%
    04:00 +1°C° 0 mm 2 mps 742 mmHg 77%
    05:00 +1°C° 0 mm 2 mps 742 mmHg 79%
    06:00 0°C° 0 mm 3 mps 743 mmHg 78%
    07:00 0°C° 0 mm 4 mps 743 mmHg 77%
    08:00 0°C° 0 mm 5 mps 743 mmHg 75%
    09:00 +1°C° 0 mm 5 mps 744 mmHg 66%
    10:00 +2°C° 0 mm 5 mps 744 mmHg 57%
    11:00 +2°C° 0 mm 5 mps 744 mmHg 48%
    12:00 +3°C° 0 mm 5 mps 744 mmHg 44%
    13:00 +3°C° 0 mm 5 mps 744 mmHg 40%
    14:00 +5°C° 0 mm 4 mps 744 mmHg 35%
    15:00 +5°C° 0 mm 4 mps 744 mmHg 36%
    16:00 +5°C° 0 mm 3 mps 744 mmHg 36%
    17:00 +5°C° 0 mm 3 mps 744 mmHg 37%
    18:00 +5°C° 0 mm 2 mps 744 mmHg 41%
    19:00 +5°C° 0 mm 1 mps 744 mmHg 46%
    20:00 +4°C° 0 mm 1 mps 743 mmHg 50%
    21:00 +4°C° 0 mm 1 mps 743 mmHg 52%
    22:00 +3°C° 0 mm 1 mps 743 mmHg 54%
    23:00 +2°C° 0 mm 2 mps 743 mmHg 55%

    Tomorrow, 27 March, Wednesday

    Time Temperature Precipitation Wind Pressure Humidity
    00:00 +2°C° 0.2 mm 2 mps 744 mmHg 58%
    01:00 +2°C° 0.2 mm 2 mps 744 mmHg 61%
    02:00 +2°C° 0.2 mm 2 mps 744 mmHg 63%
    03:00 0°C° 0.2 mm 3 mps 745 mmHg 64%
    04:00 0°C° 0.2 mm 3 mps 745 mmHg 65%
    05:00 -1°C° 0.2 mm 4 mps 745 mmHg 66%
    06:00 -1°C° 0.1 mm 4 mps 746 mmHg 68%
    07:00 -1°C° 0.1 mm 4 mps 747 mmHg 69%
    08:00 -1°C° 0.1 mm 4 mps 748 mmHg 71%
    09:00 0°C° 0 mm 4 mps 749 mmHg 65%
    10:00 0°C° 0 mm 5 mps 749 mmHg 59%
    11:00 +1°C° 0 mm 5 mps 750 mmHg 52%
    12:00 +2°C° 0.1 mm 5 mps 751 mmHg 50%
    13:00 +2°C° 0.1 mm 5 mps 751 mmHg 48%
    14:00 +2°C° 0.1 mm 5 mps 752 mmHg 46%
    15:00 +2°C° 0.1 mm 5 mps 752 mmHg 46%
    16:00 +2°C° 0.1 mm 5 mps 752 mmHg 45%
    17:00 +3°C° 0.1 mm 4 mps 752 mmHg 45%
    18:00 0°C° 0 mm 4 mps 753 mmHg 50%
    19:00 0°C° 0 mm 3 mps 754 mmHg 55%
    20:00 -1°C° 0 mm 2 mps 754 mmHg 60%
    21:00 -1°C° 0 mm 2 mps 754 mmHg 61%
    22:00 -2°C° 0 mm 2 mps 755 mmHg 62%
    23:00 -2°C° 0 mm 2 mps 755 mmHg 63%

    Day after tomorrow, 28 March, Thursday

    Time Temperature Precipitation Wind Pressure Humidity
    00:00 -2°C° 0 mm 2 mps 756 mmHg 63%
    01:00 -2°C° 0 mm 2 mps 756 mmHg 63%
    02:00 -2°C° 0 mm 2 mps 756 mmHg 63%
    03:00 -3°C° 0 mm 2 mps 757 mmHg 63%
    04:00 -1°C° 0 mm 1 mps 757 mmHg 63%
    05:00 -1°C° 0 mm 1 mps 757 mmHg 63%
    06:00 0°C° 0 mm 1 mps 757 mmHg 59%
    07:00 +1°C° 0 mm 1 mps 758 mmHg 54%
    08:00 +2°C° 0 mm 1 mps 758 mmHg 50%
    09:00 +2°C° 0 mm 2 mps 758 mmHg 44%
    10:00 +4°C° 0 mm 2 mps 759 mmHg 39%
    11:00 +5°C° 0 mm 2 mps 759 mmHg 33%
    12:00 +5°C° 0 mm 2 mps 759 mmHg 33%
    13:00 +6°C° 0 mm 2 mps 758 mmHg 33%
    14:00 +6°C° 0 mm 2 mps 758 mmHg 32%
    15:00 +6°C° 0 mm 2 mps 758 mmHg 37%
    16:00 +6°C° 0 mm 2 mps 758 mmHg 41%
    17:00 +6°C° 0 mm 2 mps 758 mmHg 45%
    18:00 +4°C° 0 mm 2 mps 758 mmHg 52%
    19:00 +3°C° 0 mm 2 mps 758 mmHg 58%
    20:00 +2°C° 0 mm 2 mps 758 mmHg 64%
    21:00 +2°C° 0 mm 2 mps 758 mmHg 66%
    22:00 +1°C° 0 mm 2 mps 758 mmHg 68%
    23:00 +1°C° 0 mm 2 mps 758 mmHg 71%

    29 March, Friday

    Time Temperature Precipitation Wind Pressure Humidity
    00:00 +1°C° 0 mm 3 mps 758 mmHg 71%
    01:00 +1°C° 0 mm 3 mps 758 mmHg 71%
    02:00 +1°C° 0 mm 3 mps 758 mmHg 72%
    03:00 0°C° 0 mm 3 mps 758 mmHg 76%
    04:00 +1°C° 0 mm 2 mps 758 mmHg 80%
    05:00 -1°C° 0 mm 2 mps 758 mmHg 84%
    06:00 0°C° 0 mm 3 mps 758 mmHg 82%
    07:00 +1°C° 0 mm 3 mps 758 mmHg 79%
    08:00 +2°C° 0 mm 3 mps 757 mmHg 77%
    09:00 +4°C° 0 mm 3 mps 757 mmHg 72%
    10:00 +6°C° 0 mm 4 mps 757 mmHg 68%
    11:00 +7°C° 0 mm 4 mps 757 mmHg 63%
    12:00 +8°C° 0 mm 4 mps 756 mmHg 60%
    13:00 +9°C° 0 mm 5 mps 755 mmHg 56%
    14:00 +10°C° 0 mm 5 mps 755 mmHg 53%
    15:00 +10°C° 0 mm 5 mps 754 mmHg 55%
    16:00 +11°C° 0 mm 4 mps 754 mmHg 58%
    17:00 +11°C° 0 mm 4 mps 753 mmHg 60%
    18:00 +10°C° 0 mm 4 mps 753 mmHg 68%
    19:00 +8°C° 0 mm 4 mps 753 mmHg 75%
    20:00 +7°C° 0 mm 4 mps 753 mmHg 83%
    21:00 +7°C° 0 mm 3 mps 753 mmHg 86%
    22:00 +5°C° 0 mm 3 mps 753 mmHg 89%
    23:00 +5°C° 0 mm 3 mps 753 mmHg 92%

    30 March, Saturday

    Time Temperature Precipitation Wind Pressure Humidity
    00:00 +4°C° 0 mm 3 mps 753 mmHg 92%
    01:00 +4°C° 0 mm 3 mps 753 mmHg 92%
    02:00 +4°C° 0 mm 3 mps 753 mmHg 92%
    03:00 +4°C° 0 mm 4 mps 753 mmHg 92%
    04:00 +4°C° 0 mm 4 mps 752 mmHg 92%
    05:00 +3°C° 0 mm 4 mps 752 mmHg 91%
    06:00 +4°C° 0 mm 4 mps 752 mmHg 88%
    07:00 +5°C° 0 mm 4 mps 752 mmHg 84%
    08:00 +5°C° 0 mm 5 mps 752 mmHg 81%
    09:00 +7°C° 0 mm 5 mps 752 mmHg 74%
    10:00 +8°C° 0 mm 5 mps 752 mmHg 68%
    11:00 +10°C° 0 mm 5 mps 752 mmHg 61%
    12:00 +12°C° 0 mm 5 mps 751 mmHg 57%
    13:00 +13°C° 0 mm 5 mps 751 mmHg 53%
    14:00 +14°C° 0 mm 5 mps 751 mmHg 48%
    15:00 +14°C° 0 mm 5 mps 751 mmHg 49%
    16:00 +14°C° 0 mm 5 mps 751 mmHg 50%
    17:00 +14°C° 0 mm 4 mps 750 mmHg 51%
    18:00 +12°C° 0 mm 4 mps 750 mmHg 57%
    19:00 +10°C° 0 mm 3 mps 751 mmHg 64%
    20:00 +9°C° 0 mm 3 mps 751 mmHg 70%
    21:00 +8°C° 0 mm 3 mps 751 mmHg 73%
    22:00 +7°C° 0 mm 2 mps 751 mmHg 76%
    23:00 +7°C° 0 mm 2 mps 751 mmHg 78%

    1 April, Monday

    Time Temperature Precipitation Wind Pressure Humidity
    00:00 +11°C° 0 mm 3 mps 746 mmHg 69%
    01:00 +10°C° 0 mm 2 mps 746 mmHg 72%
    02:00 +9°C° 0 mm 2 mps 746 mmHg 74%
    03:00 +8°C° 0 mm 2 mps 746 mmHg 79%
    04:00 +7°C° 0 mm 3 mps 746 mmHg 83%
    05:00 +5°C° 0 mm 3 mps 746 mmHg 88%
    06:00 +5°C° 0 mm 3 mps 747 mmHg 80%
    07:00 +5°C° 0 mm 4 mps 747 mmHg 73%
    08:00 +4°C° 0 mm 4 mps 748 mmHg 65%
    09:00 +5°C° 0 mm 4 mps 748 mmHg 63%
    10:00 +5°C° 0 mm 4 mps 749 mmHg 60%
    11:00 +6°C° 0 mm 4 mps 749 mmHg 58%
    12:00 +6°C° 0 mm 4 mps 749 mmHg 54%
    13:00 +7°C° 0 mm 4 mps 749 mmHg 49%
    14:00 +8°C° 0 mm 4 mps 750 mmHg 45%
    15:00 +7°C° 0 mm 5 mps 750 mmHg 48%
    16:00 +6°C° 0 mm 5 mps 750 mmHg 50%
    17:00 +6°C° 0 mm 5 mps 750 mmHg 53%
    18:00 +5°C° 0 mm 4 mps 750 mmHg 56%
    19:00 +4°C° 0 mm 3 mps 751 mmHg 60%
    20:00 +2°C° 0 mm 3 mps 751 mmHg 63%
    21:00 +2°C° 0 mm 3 mps 751 mmHg 64%
    22:00 +2°C° 0 mm 3 mps 751 mmHg 66%
    23:00 +1°C° 0 mm 3 mps 751 mmHg 67%
    Show more